Regional Weather Roundup
Issued by NWS

Home | Current Version | Previous Version | Text Only | Print | Product List | Glossary Off
Versions: 1 2 3 4 5 6 7 8 9 10 11 12 13 14 15 16 17 18 19 20 21 22 23 24 25 26 27 28 29 30 31 32 33 34 35 36 37 38 39 40 41 42 43 44 45 46 47 48 49 50

000
ASUS45 KPSR 202200
RWRAZ

PRELIMINARY ARIZONA REGIONAL HOURLY WEATHER ROUNDUP
NATIONAL WEATHER SERVICE PHOENIX AZ
300 PM MST SUN APR 20 2014

NOTE: FAIR INDICATES FEW OR NO CLOUDS BELOW 12,000 FEET WITH NO
SIGNIFICANT WEATHER AND/OR OBSTRUCTIONS TO VISIBILITY.

AZZ001>003-036-202300-
NORTHWEST ARIZONA

CITY           SKY/WX    TMP DP  RH WIND       PRES   REMARKS
KINGMAN        SUNNY     82  32  16 W10       30.05F
$$

AZZ004>008-015-016-018-202300-
NORTH CENTRAL ARIZONA

CITY           SKY/WX    TMP DP  RH WIND       PRES   REMARKS
GRAND CANYON   PTSUNNY   66  30  26 W6        30.20F
WILLIAMS       FAIR      68  27  21 W5        30.27F
PRESCOTT       MOSUNNY   74  27  17 VRB3      30.13F
FLAGSTAFF      MOSUNNY   61  33  35 SW7       30.22F
PAGE           PTSUNNY   79  28  15 N10       30.06F
$$

AZZ009>014-017-202300-
NORTHEAST ARIZONA

CITY           SKY/WX    TMP DP  RH WIND       PRES   REMARKS
WINSLOW        NOT AVBL
SAINT JOHNS    SUNNY     71  30  21 NW10G22   30.13F
WINDOW ROCK    MOSUNNY   68  25  19 N10G18    30.15F
SHOW LOW       MOSUNNY   64  30  27 NW13      30.20F
$$

AZZ023-202300-
GREATER PHOENIX AREA

CITY           SKY/WX    TMP DP  RH WIND       PRES   REMARKS
PHOENIX        MOSUNNY   89  35  14 W7        29.94F
GLENDALE       MOSUNNY   90  37  15 SW10      29.96F
LUKE AFB       NOT AVBL
DEER VALLEY    SUNNY     88  36  15 W7        29.96F
SCOTTSDALE     SUNNY     87  37  17 VRB6      29.98F
MESA-FALCON    MOSUNNY   86  36  16 SW9       29.97F
MESA-GATEWAY   SUNNY     86  36  16 SW7       29.99F
CHANDLER       MOSUNNY   88  37  16 SW7       29.97F
$$

AZZ027-028-202300-
SOUTHWEST MARICOPA COUNTY AND PINAL COUNTY

CITY           SKY/WX    TMP DP  RH WIND       PRES   REMARKS
CASA GRANDE    SUNNY     86  25  10 NW6       29.99F
$$

AZZ503-504-507>509-202300-
SOUTHEAST ARIZONA

CITY           SKY/WX    TMP DP  RH WIND       PRES   REMARKS
TUCSON         SUNNY     84  34  16 E7        30.03F
DAVIS-MONTHAN  SUNNY     82  38  20 VRB2      30.02F
RYAN FIELD       N/A     84  36  17 W6        30.03F
NOGALES        MOSUNNY   77  34  21 CALM      30.07F
SIERRA VISTA   PTSUNNY   76  31  19 MISG      30.12F
SAFFORD        MOSUNNY   81  32  17 W10G18    30.01F
$$

AZZ020-021-025-026-031-202300-
SOUTHWEST ARIZONA

CITY           SKY/WX    TMP DP  RH WIND       PRES   REMARKS
YUMA           SUNNY     93  39  15 NW9       29.93F
$$

CAZ031-033-041-043-047-048-061-202300-
SOUTHERN CALIFORNIA

CITY           SKY/WX    TMP DP  RH WIND       PRES   REMARKS
DOWNTOWN L.A.  SUNNY     72  56  57 CALM      30.01F
L.A. AIRPORT   MOSUNNY   67  55  65 SW13      30.04F
SAN DIEGO      MOSUNNY   67  55  65 W9        30.05F
BURBANK        SUNNY     79  51  37 S8        30.00F
ONTARIO        MOSUNNY   84  50  30 W13       30.00F
RIVERSIDE      SUNNY     84  50  30 W14       29.99F
PALM SPRINGS   MOSUNNY   92  45  19 SE12      29.94F
EL CENTRO NAS  SUNNY     92  42  17 SE7       29.91F
IMPERIAL       SUNNY     93  45  19 E9        29.91F
BLYTHE         SUNNY     93  41  16 VRB7      29.92F
$$

NVZ020-UTZ003-202300-
SOUTHERN NEVADA-UTAH

CITY           SKY/WX    TMP DP  RH WIND       PRES   REMARKS
LAS VEGAS      NOT AVBL
SALT LAKE CITY PTSUNNY   70  23  17 NW10      30.13F
$$

NMZ009-TXZ055-202300-
NEW MEXICO-WEST TEXAS

CITY           SKY/WX    TMP DP  RH WIND       PRES   REMARKS
ALBUQUERQUE    PTSUNNY   76  28  17 NW18G25   30.05F
EL PASO        MOSUNNY   78  37  22 SW13G23   30.06F
$$


........................KEY........................
SKY/WX - SKY CONDITION/WEATHER
TMP    - TEMPERATURE IN FAHRENHEIT
DP     - DEW POINT IN FAHRENHEIT
RH     - RELATIVE HUMIDITY IN PERCENT
WIND   - DIRECTION AND SPEED IN MILES PER HOUR (MPH)
VRB    - VARIABLE WIND DIRECTION
PRES   - MEAN SEA LEVEL PRESSURE IN INCHES OF MERCURY
         F - FALLING PRESSURE   R - RISING PRESSURE
         S - STEADY PRESSURE
VSB    - VISIBILITY IN MILES
HX     - HEAT INDEX IN FAHRENHEIT
WCI    - WIND CHILL INDEX IN FAHRENHEIT
TC     - TEMPERATURE IN CELSIUS WHICH IS ALSO KNOWN AS
         TEMPERATURE IN CENTIGRADE
AFB    - AIR FORCE BASE
         LUKE AFB IS LUKE AIR FORCE BASE
         DAVIS-MONTHAN IS DAVIS-MONTHAN AIR FORCE BASE
NAS    - NAVAL AIR STATION
         EL CENTRO NAS IS EL CENTRO NAVAL AIR STATION
N/A    - NOT AVAILABLE



USA.gov is the U.S. government's official web portal to all federal, state and local government web resources and services.